Location: ČR
(50.0000°N, 15.0000°E)
Time: 14:23:09
(UTC+00:00)

Explorer 7 - Pass Details

Date: 21 October 2021
Orbit: 483 x 675 km, 50.3° (Epoch: 27 November)

Event Time Altitude Azimuth Distance (km) Brightness Sun altitude
Rises 20:39:44 0° 209° (SSW) 2,665 - -43.3°
Reaches altitude 10° 20:42:12 10° 195° (SSW) 1,812 - -43.6°
Maximum altitude 20:45:30 23° 141° (SE) 1,211 - -43.9°
Drops below altitude 10° 20:49:00 10° 88° (E) 1,919 - -44.3°
Sets 20:51:41 0° 75° (ENE) 2,863 - -44.6°
